Weather History for Watertown, NY

Change the Weather History Date:

Thursday, February 14, 2013

  Actual Average Record
Temperature  
Mean Temperature 29 °F 21 °F  
Max Temperature 37 °F 31 °F 56 °F (1984)
Min Temperature 20 °F 10 °F -30 °F (1979)
Degree Days  
Heating Degree Days 36 44  
Month to date heating degree days 668 636  
Since 1 July heating degree days 4313 4847  
Cooling Degree Days 0 0  
Month to date cooling degree days 0 0  
Year to date cooling degree days 0 0  
Moisture  
Dew Point 26 °F    
Average Humidity 78    
Maximum Humidity 96    
Minimum Humidity 59    
Precipitation  
Precipitation 0.01 in 0.07 in 1.65 in (1950)
Month to date precipitation 0.60 1.09  
Year to date precipitation 2.80 3.75  
Sea Level Pressure  
Sea Level Pressure 29.86 in    
Wind  
Wind Speed 4 mph (South)    
Max Wind Speed 13 mph    
Max Gust Speed 20 mph    
Visibility 7 miles    
Events Rain , Snow    
T = Trace of Precipitation, MM = Missing Value Source: NWS Daily Summary

Daily Weather History Graph

Daily Weather History Graph

Search for Another Location

Airport:

Trip Planner

Search our weather history database for the weather conditions in past years. The results will help you decide how hot, cold, wet, or windy it might be!

Date:

Astronomy

Feb. 14, 2013 Rise Set
Actual Time 7:04 AM EST 5:32 PM EST
Civil Twilight 6:34 AM EST 6:02 PM EST
Nautical Twilight 6:00 AM EST 6:36 PM EST
Astronomical Twilight 5:27 AM EST 7:09 PM EST
Moon 8:53 AM EST (2/14) 10:46 PM EST (2/14)
Length of Visible Light 11h 27m
Length of Day
10h 28m
Waxing Crescent, 21% of the Moon is Illuminated
Feb 14
Waxing Crescent
Feb 17
First Quarter
Feb 25
Full
Mar 4
Last Quarter
Mar 11
New

Hourly Weather History & Observations

Time (EST) Temp. Windchill Dew Point Humidity Pressure Visibility Wind Dir Wind Speed Gust Speed Precip Events Conditions
12:56 AM 23.0 °F - 19.9 °F 88% 29.81 in 6.0 mi Calm Calm - N/A   Overcast
1:56 AM 23.0 °F - 21.0 °F 92% 29.82 in 6.0 mi Calm Calm - N/A   Overcast
2:56 AM 24.1 °F - 21.0 °F 88% 29.83 in 6.0 mi Calm Calm - N/A   Overcast
3:56 AM 23.0 °F - 21.0 °F 92% 29.84 in 6.0 mi Calm Calm - N/A   Overcast
4:56 AM 21.0 °F 16.2 °F 18.0 °F 88% 29.86 in 6.0 mi SSE 3.5 mph - N/A   Overcast
5:56 AM 25.0 °F 20.7 °F 21.9 °F 88% 29.87 in 7.0 mi SSE 3.5 mph - N/A   Overcast
6:56 AM 27.0 °F 23.0 °F 24.1 °F 89% 29.89 in 8.0 mi South 3.5 mph - N/A   Overcast
7:56 AM 27.0 °F - 24.1 °F 89% 29.92 in 6.0 mi Calm Calm - N/A   Overcast
8:56 AM 28.9 °F - 24.1 °F 82% 29.93 in 8.0 mi Calm Calm - N/A   Overcast
9:56 AM 32.0 °F 27.5 °F 23.0 °F 69% 29.92 in 10.0 mi SW 4.6 mph - N/A   Mostly Cloudy
10:56 AM 34.0 °F 26.6 °F 21.0 °F 59% 29.94 in 10.0 mi SW 9.2 mph - N/A   Overcast
11:56 AM 34.0 °F 26.6 °F 21.9 °F 61% 29.93 in 10.0 mi SSW 9.2 mph - N/A   Overcast
12:19 PM 33.8 °F 27.0 °F 23.0 °F 65% 29.90 in 10.0 mi SSW 8.1 mph - N/A   Overcast
12:56 PM 34.0 °F 28.0 °F 23.0 °F 64% 29.91 in 10.0 mi SSW 6.9 mph - N/A   Overcast
1:56 PM 35.1 °F 29.3 °F 24.1 °F 64% 29.89 in 10.0 mi South 6.9 mph - N/A   Overcast
2:56 PM 35.1 °F 31.0 °F 24.1 °F 64% 29.88 in 10.0 mi SW 4.6 mph - N/A   Overcast
3:03 PM 35.6 °F 32.8 °F 24.8 °F 65% 29.87 in 10.0 mi South 3.5 mph - N/A   Overcast
3:56 PM 36.0 °F 32.1 °F 23.0 °F 59% 29.88 in 10.0 mi South 4.6 mph - N/A   Overcast
4:56 PM 36.0 °F - 23.0 °F 59% 29.88 in 10.0 mi Calm Calm - N/A   Overcast
5:56 PM 36.0 °F - 24.1 °F 62% 29.88 in 10.0 mi Calm Calm - N/A   Overcast
6:56 PM 34.0 °F 31.0 °F 28.0 °F 79% 29.88 in 2.5 mi SE 3.5 mph - 0.00 in Snow Light Snow
7:07 PM 33.8 °F 30.8 °F 28.4 °F 81% 29.86 in 5.0 mi SE 3.5 mph - 0.00 in Snow Light Snow
7:56 PM 33.1 °F 30.0 °F 28.0 °F 82% 29.86 in 10.0 mi East 3.5 mph - 0.00 in   Overcast
8:44 PM 33.8 °F 30.8 °F 28.4 °F 81% 29.84 in 10.0 mi East 3.5 mph - N/A   Overcast
8:56 PM 35.1 °F 29.3 °F 28.0 °F 76% 29.85 in 10.0 mi South 6.9 mph - N/A   Overcast
9:51 PM 33.8 °F 27.7 °F 30.2 °F 87% 29.82 in 2.5 mi South 6.9 mph - 0.00 in Snow Light Snow
9:56 PM 34.0 °F 27.2 °F 30.9 °F 89% 29.84 in 2.5 mi South 8.1 mph - 0.00 in Snow Light Snow
10:02 PM 33.8 °F 27.0 °F 30.2 °F 87% 29.82 in 3.0 mi South 8.1 mph - 0.00 in Snow Light Snow
10:09 PM 33.8 °F 27.7 °F 30.2 °F 87% 29.82 in 4.0 mi South 6.9 mph - 0.00 in Snow Light Snow
10:21 PM 33.8 °F 26.4 °F 32.0 °F 93% 29.81 in 5.0 mi SSE 9.2 mph - 0.00 in   Overcast
10:39 PM 35.6 °F 29.9 °F 32.0 °F 87% 29.81 in 6.0 mi South 6.9 mph - 0.00 in Rain Light Rain
10:56 PM 35.1 °F 27.9 °F 32.0 °F 89% 29.82 in 7.0 mi South 9.2 mph - 0.00 in Rain Light Rain
11:56 PM 36.0 °F 28.5 °F 33.1 °F 89% 29.81 in 8.0 mi South 10.4 mph 19.6 mph 0.01 in Rain Light Rain